Satellite-Ground Cal/Val Site Overpasses Predictions

Prediction of Satellite NPP Overpassing Cal/Val Site: Antarctic Dome C

Ground Cal/Val Site Location: Latitude: -75.10, Longitude: 123.35; Satellite-Ground Site NADIR distance within 100 km.

Table of predicted overpasses for the next 14.0 days since TLE Epoch: 1/5/2014
Interval Starting Time Ending Time Minimum Distance Time Minimum Distance (km)
1 01/05/2014 14:57:28 01/05/2014 14:57:56 01/05/2014 14:57:42 27.26
2 01/06/2014 14:38:45 01/06/2014 14:39:02 01/06/2014 14:38:54 79.79
3 01/07/2014 07:40:20 01/07/2014 07:40:47 01/07/2014 07:40:34 32.12
4 01/08/2014 07:21:35 01/08/2014 07:21:53 01/08/2014 07:21:44 78.02
5 01/10/2014 15:03:53 01/10/2014 15:04:15 01/10/2014 15:04:04 64.34
6 01/11/2014 14:45:03 01/11/2014 14:45:29 01/11/2014 14:45:16 44.89
7 01/12/2014 07:46:44 01/12/2014 07:47:05 01/12/2014 07:46:55 67.17
8 01/13/2014 07:27:53 01/13/2014 07:28:20 01/13/2014 07:28:07 40.73
9 01/16/2014 14:51:22 01/16/2014 14:51:51 01/16/2014 14:51:36 9.56


NCC Satellite Cal/Val Overpasses Prediction Service
